period_start,C,m1,H,J0,J1,J2,J3,J4,J5,JA,JB,JC,JD,JJ,JK,JN,#
2015-08-20 00:00:49,-0.02,0.55,0.00,27.53,31.35,34.13,14.11,50.38,999.08,2021.90,3215.75,3019.60,3298.98,600.12,577.13,19.48,0000 0000 0000 0000 000000
2015-08-20 00:05:50,0.00,0.55,0.00,27.52,31.35,34.11,14.06,50.35,999.13,2021.86,3215.76,3019.61,3298.99,599.75,576.72,19.53,0000 0000 0000 0000 000000
2015-08-20 00:10:51,-0.01,0.55,0.00,27.52,31.35,34.15,14.11,50.31,999.39,2021.87,3215.96,3019.85,3298.99,599.96,577.21,19.58,0000 0000 0000 0000 000000
2015-08-20 00:15:52,0.00,0.55,0.00,27.49,31.34,34.13,14.11,50.41,999.52,2021.95,3215.99,3019.96,3299.00,599.96,577.16,19.63,0000 0000 0000 0000 000000
2015-08-20 00:20:53,0.00,0.55,0.00,27.49,31.33,34.11,14.10,50.28,999.53,2021.97,3215.98,3019.97,3299.00,599.96,577.23,19.68,0000 0000 0000 0000 000000
2015-08-20 00:25:55,-0.00,0.55,0.00,27.48,31.32,34.12,14.10,50.30,999.53,2021.96,3215.97,3019.96,3299.00,599.87,577.13,19.73,0000 0000 0000 0000 000000
2015-08-20 00:30:56,0.00,0.55,0.00,27.46,31.32,34.10,14.06,50.12,999.53,2021.95,3215.76,3019.90,3299.00,599.92,577.09,19.78,0000 0000 0000 0000 000000
2015-08-20 00:35:57,-0.00,0.55,0.00,27.45,31.30,34.09,14.11,50.29,999.54,2021.96,3215.86,3019.93,3299.00,600.25,577.51,19.83,0000 0000 0000 0000 000000
2015-08-20 00:40:59,-0.00,0.55,0.00,27.42,31.30,34.08,14.17,50.38,999.56,2021.96,3215.91,3019.97,3299.00,600.29,577.69,19.88,0000 0000 0000 0000 000000
2015-08-20 00:46:00,0.00,0.55,0.00,27.42,31.29,34.10,14.09,50.19,999.71,2021.98,3215.94,3019.98,3299.00,600.02,577.62,19.93,0000 0000 0000 0000 000000
2015-08-20 00:51:01,0.00,0.55,0.00,27.42,31.27,34.04,14.10,50.41,999.70,2021.98,3215.79,3019.97,3299.00,600.10,577.60,19.98,0000 0000 0000 0000 000000
2015-08-20 00:56:02,-0.00,0.55,0.00,27.40,31.27,34.04,14.14,50.23,999.71,2021.98,3215.77,3019.97,3299.01,600.25,577.77,20.03,0000 0000 0000 0000 000000
2015-08-20 01:01:03,0.00,0.55,0.00,27.41,31.26,34.07,14.17,50.34,999.99,2021.98,3215.67,3019.95,3299.00,600.19,577.82,20.08,0000 0000 0000 0000 000000
2015-08-20 01:06:05,-0.00,0.55,0.00,27.41,31.25,33.90,14.14,50.44,1000.03,2021.99,3215.88,3019.98,3299.01,600.25,577.92,20.13,0000 0000 0000 0000 000000
2015-08-20 01:11:06,0.00,0.55,0.00,27.45,31.25,33.79,14.12,50.13,1000.02,2021.99,3215.98,3019.99,3299.02,600.06,577.53,20.18,0000 0000 0000 0000 000000
2015-08-20 01:16:07,0.00,0.55,0.00,27.52,31.24,33.80,14.14,50.38,1000.02,2021.99,3215.99,3019.99,3299.05,600.13,577.60,20.23,0000 0000 0000 0000 000000
2015-08-20 01:21:08,0.01,0.55,0.00,27.61,31.24,33.87,14.09,50.65,1000.01,2021.99,3215.72,3019.80,3298.99,600.25,577.55,20.28,0000 0000 0000 0000 000000
2015-08-20 01:26:10,0.00,0.55,0.00,27.69,31.24,33.90,14.08,50.42,1000.02,2021.99,3215.68,3019.62,3298.98,600.01,577.17,20.33,0000 0000 0000 0000 000000
2015-08-20 01:31:11,0.04,0.55,0.00,27.73,31.25,33.94,14.09,50.63,1000.05,2021.99,3215.39,3019.21,3298.49,600.26,577.37,20.38,0000 0000 0000 0000 000000
2015-08-20 01:36:13,0.10,0.56,0.00,27.73,31.25,34.00,14.08,50.52,1000.16,2021.99,3214.30,3017.46,3296.73,599.87,577.03,20.43,0000 0000 0000 0000 000000
2015-08-20 01:41:14,0.01,0.56,0.00,27.76,31.25,34.04,14.04,50.61,1000.07,2021.99,3214.00,3017.01,3296.14,599.97,577.06,20.48,0000 0000 0000 0000 000000
2015-08-20 01:46:15,0.00,0.56,0.00,27.75,31.25,34.07,14.02,50.46,1000.02,2021.99,3213.96,3016.89,3296.00,600.07,577.10,20.53,0000 0000 0000 0000 000000
2015-08-20 01:51:16,0.05,0.56,0.00,27.76,31.25,34.13,14.03,50.65,1000.02,2021.99,3213.19,3016.02,3295.19,599.85,577.03,20.58,0000 0000 0000 0000 000000
2015-08-20 01:56:18,0.14,0.57,0.00,27.77,31.25,34.14,14.10,50.72,1000.06,2021.99,3211.25,3013.58,3292.94,600.43,577.47,20.63,0000 0000 0000 0000 000000
2015-08-20 02:01:19,0.05,0.57,0.00,27.76,31.25,34.15,14.12,50.73,1000.18,2021.98,3210.74,3012.53,3291.71,600.15,577.27,20.68,0000 0000 0000 0000 000000
2015-08-20 02:06:20,0.01,0.57,0.00,27.75,31.25,34.17,14.06,50.38,1000.33,2021.98,3210.27,3012.01,3291.06,600.02,577.29,20.73,0000 0000 0000 0000 000000
2015-08-20 02:11:22,0.04,0.57,0.00,27.73,31.25,34.17,14.06,50.64,1000.39,2021.96,3210.06,3011.32,3290.33,599.76,577.12,20.79,0000 0000 0000 0000 000000
2015-08-20 02:16:23,0.00,0.57,0.00,27.72,31.23,34.16,14.05,50.67,1000.48,2021.97,3209.91,3011.00,3290.00,599.61,577.02,20.84,0000 0000 0000 0000 000000
2015-08-20 02:21:25,0.05,0.58,0.00,27.70,31.22,34.13,14.03,50.73,1000.45,2021.97,3209.32,3010.41,3289.50,599.90,577.30,20.89,0000 0000 0000 0000 000000
2015-08-20 02:26:26,0.01,0.58,0.00,27.68,31.22,34.08,13.96,50.59,1000.56,2021.98,3208.98,3009.86,3288.99,599.43,577.02,20.94,0000 0000 0000 0000 000000
2015-08-20 02:31:27,0.03,0.58,0.00,27.66,31.20,34.08,14.04,50.73,1000.58,2021.99,3208.75,3009.17,3288.62,599.89,577.43,20.99,0000 0000 0000 0000 000000
2015-08-20 02:36:28,0.04,0.58,0.00,27.63,31.20,34.06,14.08,50.82,1000.70,2021.99,3208.12,3008.41,3287.88,600.06,577.73,21.04,0000 0000 0000 0000 000000
2015-08-20 02:41:29,0.23,0.59,0.00,27.61,31.17,34.01,14.12,50.78,1000.97,2021.99,3205.43,3004.68,3283.76,600.37,578.20,21.09,0000 0000 0000 0000 000000
2015-08-20 02:46:31,0.06,0.60,0.00,27.57,31.17,33.97,14.15,50.79,1001.00,2021.99,3204.11,3003.09,3282.15,600.32,578.24,21.14,0000 0000 0000 0000 000000
2015-08-20 02:51:32,0.02,0.60,0.00,27.55,31.15,33.93,14.01,50.74,1001.02,2021.99,3203.98,3002.63,3281.77,599.87,577.83,21.19,0000 0000 0000 0000 000000
2015-08-20 02:56:33,0.04,0.60,0.00,27.54,31.13,33.90,14.03,50.67,1001.09,2021.99,3203.15,3001.96,3281.04,599.71,577.79,21.24,0000 0000 0000 0000 000000
2015-08-20 03:01:34,0.04,0.60,0.00,27.50,31.11,33.89,14.16,50.71,1001.31,2021.99,3202.99,3001.37,3280.39,600.12,578.40,21.29,0000 0000 0000 0000 000000
2015-08-20 03:06:36,0.00,0.60,0.00,27.46,31.10,33.83,14.10,50.59,1001.28,2021.99,3202.98,3001.00,3280.02,599.76,578.19,21.34,0000 0000 0000 0000 000000
2015-08-20 03:11:37,0.00,0.60,0.00,27.40,31.07,33.80,14.12,50.65,1001.26,2021.99,3202.99,3001.01,3280.04,599.98,578.39,21.39,0000 0000 0000 0000 000000
2015-08-20 03:16:38,0.00,0.60,0.00,27.37,31.05,33.76,14.08,50.68,1001.41,2022.01,3202.99,3001.00,3280.01,600.11,578.73,21.44,0000 0000 0000 0000 000000
2015-08-20 03:21:39,0.00,0.60,0.00,27.34,31.03,33.72,14.18,50.63,1001.45,2022.02,3202.99,3001.00,3280.00,600.58,579.15,21.49,0000 0000 0000 0000 000000
2015-08-20 03:26:40,0.00,0.60,0.00,27.29,31.01,33.70,14.14,50.83,1001.48,2022.03,3202.99,3001.00,3280.00,600.15,578.83,21.54,0000 0000 0000 0000 000000
2015-08-20 03:31:42,0.01,0.60,0.00,27.28,30.99,33.67,14.06,50.83,1001.49,2022.10,3202.99,3000.98,3280.00,599.78,578.63,21.59,0000 0000 0000 0000 000000
2015-08-20 03:36:42,0.01,0.60,0.00,27.23,30.96,33.67,14.05,50.85,1001.56,2022.25,3202.99,3000.96,3280.00,600.13,579.08,21.64,0000 0000 0000 0000 000000
2015-08-20 03:41:44,0.04,0.60,0.00,27.21,30.94,33.61,14.07,50.67,1001.58,2022.36,3202.93,3000.27,3279.66,599.91,578.91,21.69,0000 0000 0000 0000 000000
2015-08-20 03:46:45,0.02,0.61,0.00,27.17,30.91,33.60,14.18,50.61,1001.93,2022.83,3202.96,3000.35,3279.94,599.91,579.13,21.74,0000 0000 0000 0000 000000
2015-08-20 03:51:46,-0.01,0.61,0.00,27.16,30.90,33.62,14.15,50.91,1001.93,2022.96,3202.99,3000.89,3279.99,599.78,578.97,21.79,0000 0000 0000 0000 000000
2015-08-20 03:56:47,0.04,0.61,0.00,27.15,30.87,33.57,14.06,51.03,1001.79,2022.99,3202.89,3000.36,3279.43,599.89,579.19,21.84,0000 0000 0000 0000 000000
2015-08-20 04:01:49,0.03,0.61,0.00,27.12,30.85,33.54,14.17,50.83,1001.96,2022.99,3202.29,2999.75,3278.86,600.15,579.48,21.89,0000 0000 0000 0000 000000
2015-08-20 04:06:50,0.04,0.61,0.00,27.11,30.83,33.54,14.13,50.90,1001.98,2022.99,3201.97,2998.80,3278.03,600.07,579.46,21.94,0000 0000 0000 0000 000000
2015-08-20 04:11:51,0.04,0.61,0.00,27.08,30.81,33.54,14.15,50.92,1001.99,2022.99,3201.55,2998.15,3277.50,600.10,579.60,21.99,0000 0000 0000 0000 000000
2015-08-20 04:16:53,0.01,0.62,0.00,27.06,30.79,33.52,14.19,50.73,1002.18,2022.99,3201.01,2997.78,3276.99,600.16,579.83,22.04,0000 0000 0000 0000 000000
2015-08-20 04:21:54,-0.00,0.62,0.00,27.05,30.77,33.49,14.11,50.89,1002.27,2023.00,3201.03,2997.91,3276.99,600.00,579.64,22.09,0000 0000 0000 0000 000000
2015-08-20 04:26:55,0.02,0.62,0.00,27.02,30.75,33.48,14.09,50.86,1002.37,2023.01,3201.01,2997.48,3276.97,600.13,579.93,22.14,0000 0000 0000 0000 000000
2015-08-20 04:31:56,0.01,0.62,0.00,27.01,30.73,33.45,14.18,50.88,1002.42,2023.05,3201.00,2997.11,3276.74,600.19,580.03,22.19,0000 0000 0000 0000 000000
2015-08-20 04:36:57,0.02,0.62,0.00,26.97,30.71,33.44,14.12,50.80,1002.45,2023.19,3200.99,2997.01,3276.17,599.89,579.94,22.24,0000 0000 0000 0000 000000
2015-08-20 04:41:59,0.03,0.62,0.00,26.96,30.69,33.45,14.16,50.85,1002.44,2023.50,3200.98,2997.00,3276.03,600.13,580.09,22.29,0000 0000 0000 0000 000000
2015-08-20 04:47:00,0.02,0.62,0.00,26.95,30.67,33.42,14.15,50.82,1002.47,2023.81,3200.95,2997.00,3276.00,599.84,579.91,22.34,0000 0000 0000 0000 000000
2015-08-20 04:52:01,0.00,0.62,0.00,26.91,30.65,33.42,14.13,50.86,1002.46,2023.92,3200.89,2996.95,3276.01,600.04,580.02,22.39,0000 0000 0000 0000 000000
2015-08-20 04:57:03,0.04,0.62,0.00,26.91,30.63,33.40,14.14,50.79,1002.46,2023.97,3200.31,2996.32,3275.98,599.70,579.84,22.44,0000 0000 0000 0000 000000
2015-08-20 05:02:04,0.03,0.62,0.00,26.88,30.61,33.35,14.20,50.80,1002.46,2023.99,3200.33,2996.15,3275.64,600.33,580.51,22.49,0000 0000 0000 0000 000000
2015-08-20 05:07:05,0.01,0.63,0.00,26.87,30.59,33.34,14.14,50.84,1002.47,2023.99,3199.99,2995.85,3275.01,599.98,580.25,22.54,0000 0000 0000 0000 000000
2015-08-20 05:12:06,-0.00,0.63,0.00,26.85,30.56,33.29,14.15,50.79,1002.49,2023.99,3199.98,2995.87,3275.00,600.21,580.35,22.59,0000 0000 0000 0000 000000
2015-08-20 05:17:07,0.00,0.63,0.00,26.81,30.55,33.32,14.17,50.81,1002.69,2023.99,3199.98,2995.88,3275.00,599.99,580.39,22.64,0000 0000 0000 0000 000000
2015-08-20 05:22:09,0.00,0.63,0.00,26.79,30.52,33.31,14.18,50.91,1002.86,2024.01,3199.99,2995.95,3275.00,600.24,580.77,22.69,0000 0000 0000 0000 000000
2015-08-20 05:27:10,0.00,0.63,0.00,26.75,30.50,33.26,14.18,50.34,1003.01,2024.02,3199.99,2995.96,3275.01,600.18,580.78,22.74,0000 0000 0000 0000 000000
2015-08-20 05:32:12,0.00,0.63,0.00,26.66,30.47,33.23,14.10,50.68,1003.39,2024.10,3199.99,2995.98,3275.01,599.78,580.85,22.79,0000 0000 0000 0000 000000
2015-08-20 05:37:13,0.03,0.63,0.00,26.58,30.44,33.25,14.23,50.72,1003.44,2024.49,3200.00,2995.99,3275.06,600.32,581.59,22.84,0000 0000 0000 0000 000000
2015-08-20 05:42:15,0.03,0.63,0.00,26.51,30.40,33.23,14.23,50.55,1003.57,2024.84,3200.01,2995.99,3275.21,600.13,581.52,22.89,0000 0000 0000 0000 000000
2015-08-20 05:47:16,-0.00,0.63,0.00,26.45,30.37,33.17,14.18,50.53,1003.84,2024.96,3200.03,2995.99,3275.79,600.33,582.18,22.94,0000 0000 0000 0000 000000
2015-08-20 05:52:17,-0.01,0.63,0.00,26.42,30.33,33.10,14.21,50.63,1003.92,2024.99,3200.29,2996.18,3275.96,600.20,581.95,22.99,0000 0000 0000 0000 000000
2015-08-20 05:57:18,-0.02,0.63,0.00,26.36,30.29,33.03,14.21,50.55,1003.93,2024.99,3200.80,2996.82,3276.00,599.89,581.83,23.04,0000 0000 0000 0000 000000
2015-08-20 06:02:20,0.00,0.63,0.00,26.35,30.25,33.06,14.19,50.58,1004.01,2025.02,3200.95,2996.99,3276.06,599.87,581.97,23.09,0000 0000 0000 0000 000000
2015-08-20 06:07:21,0.02,0.63,0.00,26.34,30.21,33.09,14.13,50.51,1004.13,2025.26,3200.99,2996.99,3276.71,599.68,581.85,23.14,0000 0000 0000 0000 000000
2015-08-20 06:12:22,0.04,0.63,0.00,26.34,30.18,33.06,14.15,50.53,1004.22,2025.86,3200.99,2997.01,3276.97,599.67,581.90,23.19,0000 0000 0000 0000 000000
2015-08-20 06:17:23,-0.00,0.63,0.00,26.34,30.15,33.05,14.16,50.27,1004.29,2025.97,3201.02,2997.22,3276.99,599.97,582.23,23.24,0000 0000 0000 0000 000000
2015-08-20 06:22:25,-0.01,0.63,0.00,26.32,30.12,33.01,14.18,50.56,1004.07,2025.99,3201.14,2997.75,3277.00,600.00,582.16,23.29,0000 0000 0000 0000 000000
2015-08-20 06:27:26,0.00,0.63,0.00,26.32,30.10,33.00,14.23,50.76,1003.96,2025.99,3201.19,2997.88,3277.02,600.21,582.24,23.34,0000 0000 0000 0000 000000
2015-08-20 06:32:27,0.01,0.63,0.00,26.31,30.08,33.00,14.32,51.05,1003.98,2026.00,3201.15,2997.76,3277.00,600.68,582.68,23.39,0000 0000 0000 0000 000000
2015-08-20 06:37:29,-0.01,0.63,0.00,26.28,30.07,32.99,14.24,50.74,1004.25,2026.01,3201.17,2997.81,3277.01,599.94,582.35,23.44,0000 0000 0000 0000 000000
2015-08-20 06:42:30,0.01,0.63,0.00,26.27,30.05,32.99,14.19,50.80,1004.36,2026.08,3201.35,2997.91,3277.02,599.96,582.43,23.49,0000 0000 0000 0000 000000
2015-08-20 06:47:31,0.03,0.63,0.00,26.25,30.05,32.98,14.29,50.79,1004.40,2026.29,3201.32,2997.91,3277.02,600.35,582.80,23.54,0000 0000 0000 0000 000000
2015-08-20 06:52:32,0.02,0.63,0.00,26.23,30.03,32.99,14.25,50.58,1004.41,2026.62,3201.40,2997.97,3277.03,600.53,583.00,23.59,0000 0000 0000 0000 000000
2015-08-20 06:57:33,0.02,0.63,0.00,26.22,30.02,32.97,14.22,50.63,1004.41,2026.89,3201.32,2997.97,3277.05,600.33,582.85,23.64,0000 0000 0000 0000 000000
2015-08-20 07:02:35,0.00,0.63,0.00,26.21,30.01,32.97,14.21,50.71,1004.41,2026.94,3201.22,2997.97,3277.07,599.98,582.65,23.69,0000 0000 0000 0000 000000
2015-08-20 07:07:36,0.00,0.63,0.00,26.21,30.00,32.98,14.18,50.48,1004.41,2026.98,3201.24,2997.97,3277.10,599.99,582.54,23.74,0000 0000 0000 0000 000000
2015-08-20 07:12:37,0.00,0.63,0.00,26.20,30.00,32.98,14.23,50.58,1004.41,2026.98,3201.07,2997.96,3277.05,599.95,582.57,23.79,0000 0000 0000 0000 000000
2015-08-20 07:17:39,0.00,0.63,0.00,26.18,29.99,32.97,14.25,50.55,1004.40,2026.99,3201.03,2997.96,3277.04,599.82,582.43,23.84,0000 0000 0000 0000 000000
2015-08-20 07:22:40,0.00,0.63,0.00,26.17,29.98,32.97,14.20,50.76,1004.40,2026.99,3201.01,2997.95,3277.00,599.55,582.31,23.89,0000 0000 0000 0000 000000
2015-08-20 07:27:41,0.01,0.63,0.00,26.17,29.97,32.97,14.17,50.34,1004.41,2026.99,3201.00,2997.62,3277.00,600.20,582.97,23.94,0000 0000 0000 0000 000000
2015-08-20 07:32:43,-0.01,0.63,0.00,26.16,29.97,32.97,14.22,50.52,1004.41,2026.99,3200.99,2997.52,3277.00,600.13,582.79,24.00,0000 0000 0000 0000 000000
2015-08-20 07:37:44,-0.00,0.63,0.00,26.14,29.97,32.96,14.24,50.77,1004.41,2026.99,3200.99,2997.60,3277.00,599.92,582.63,24.05,0000 0000 0000 0000 000000
2015-08-20 07:42:45,-0.00,0.63,0.00,26.11,29.95,32.95,14.17,50.43,1004.41,2026.99,3200.98,2997.71,3277.00,600.16,582.78,24.10,0000 0000 0000 0000 000000
2015-08-20 07:47:46,0.00,0.63,0.00,26.09,29.95,32.93,14.21,50.57,1004.41,2026.99,3200.99,2997.71,3277.00,599.89,582.75,24.15,0000 0000 0000 0000 000000
2015-08-20 07:52:48,-0.00,0.63,0.00,26.06,29.95,32.95,14.18,50.61,1004.42,2027.00,3200.99,2997.69,3277.00,599.66,582.55,24.20,0000 0000 0000 0000 000000
2015-08-20 07:57:49,-0.00,0.63,0.00,26.06,29.94,32.94,14.20,50.71,1004.43,2027.01,3200.98,2997.77,3277.00,599.96,582.85,24.25,0000 0000 0000 0000 000000
2015-08-20 08:02:51,0.01,0.63,0.00,26.20,29.93,32.80,14.22,50.73,1004.54,2027.02,3200.97,2997.61,3277.00,600.11,582.80,24.30,0000 0000 0000 0000 000000
2015-08-20 08:07:52,0.02,0.64,0.00,26.30,29.94,32.60,14.22,50.88,1004.72,2027.01,3200.66,2997.16,3276.71,599.96,582.51,24.35,0000 0000 0000 0000 000000
2015-08-20 08:12:54,0.01,0.64,0.00,26.31,29.95,32.70,14.16,50.73,1004.87,2027.00,3200.13,2997.00,3276.12,599.77,582.33,24.40,0000 0000 0000 0000 000000
2015-08-20 08:17:55,0.00,0.64,0.00,26.26,29.95,32.90,14.27,50.73,1004.89,2027.01,3200.02,2997.00,3276.03,600.37,583.20,24.45,0000 0000 0000 0000 000000
2015-08-20 08:22:56,0.00,0.64,0.00,26.17,29.93,33.02,14.27,50.72,1004.89,2027.01,3200.02,2996.99,3276.02,599.91,582.89,24.50,0000 0000 0000 0000 000000
2015-08-20 08:27:57,0.00,0.64,0.00,26.09,29.92,33.02,14.18,50.82,1004.90,2027.02,3200.00,2996.99,3276.01,599.89,583.16,24.55,0000 0000 0000 0000 000000
2015-08-20 08:32:58,0.00,0.64,0.00,26.02,29.90,33.00,14.26,50.65,1004.91,2027.03,3200.00,2996.99,3276.01,600.16,583.37,24.60,0000 0000 0000 0000 000000
2015-08-20 08:37:59,0.00,0.64,0.00,26.04,29.88,32.89,14.17,50.49,1004.99,2027.06,3200.00,2996.99,3276.02,599.41,582.64,24.65,0000 0000 0000 0000 000000
2015-08-20 08:43:00,0.01,0.64,0.00,26.04,29.86,32.80,14.24,50.62,1005.29,2027.19,3200.00,2996.98,3276.00,599.86,583.39,24.70,0000 0000 0000 0000 000000
2015-08-20 08:48:02,0.01,0.64,0.00,26.06,29.85,32.75,14.16,50.53,1005.38,2027.40,3200.00,2996.99,3276.01,599.96,583.37,24.75,0000 0000 0000 0000 000000
2015-08-20 08:53:04,0.02,0.64,0.00,26.10,29.83,32.67,14.24,50.42,1005.39,2027.52,3200.00,2996.99,3276.01,600.32,583.62,24.80,0000 0000 0000 0000 000000
2015-08-20 08:58:05,-0.00,0.64,0.00,26.12,29.82,32.52,14.29,50.44,1005.40,2027.66,3199.99,2996.99,3276.00,599.98,583.28,24.85,0000 0000 0000 0000 000000
2015-08-20 09:03:06,0.00,0.64,0.00,26.16,29.80,32.45,14.15,50.33,1005.40,2027.61,3199.98,2996.98,3276.00,599.59,582.88,24.90,0000 0000 0000 0000 000000
2015-08-20 09:08:07,0.02,0.64,0.00,26.18,29.80,32.38,14.27,50.31,1005.42,2027.86,3199.98,2996.99,3276.00,600.28,583.55,24.95,0000 0000 0000 0000 000000
2015-08-20 09:13:09,-0.00,0.64,0.00,26.20,29.80,32.35,14.18,50.23,1005.49,2027.95,3199.97,2996.98,3276.00,600.12,583.26,25.00,0000 0000 0000 0000 000000
2015-08-20 09:18:10,-0.00,0.64,0.00,26.22,29.79,32.32,14.23,50.27,1005.77,2027.90,3199.94,2996.99,3276.00,600.21,583.57,25.05,0000 0000 0000 0000 000000
2015-08-20 09:23:12,0.00,0.64,0.00,26.22,29.78,32.30,14.19,50.25,1005.87,2027.96,3199.96,2996.98,3276.00,599.76,583.18,25.10,0000 0000 0000 0000 000000
2015-08-20 09:28:13,0.01,0.64,0.00,26.14,29.77,32.39,14.18,50.40,1005.87,2027.94,3199.45,2996.94,3275.99,600.03,583.58,25.15,0000 0000 0000 0000 000000
2015-08-20 09:33:14,0.02,0.64,0.00,26.05,29.77,32.68,14.30,50.47,1005.89,2027.96,3199.04,2996.70,3275.90,600.44,584.14,25.20,0000 0000 0000 0000 000000
2015-08-20 09:38:16,0.01,0.64,0.00,26.02,29.77,32.71,14.22,50.43,1005.96,2027.97,3199.01,2996.54,3275.75,599.97,583.72,25.25,0000 0000 0000 0000 000000
2015-08-20 09:43:17,0.01,0.64,0.00,26.00,29.76,32.70,14.24,50.43,1006.17,2027.99,3199.00,2996.52,3275.61,599.85,583.71,25.30,0000 0000 0000 0000 000000
2015-08-20 09:48:18,-0.00,0.64,0.00,25.96,29.75,32.65,14.30,50.28,1006.33,2027.99,3199.00,2996.60,3275.69,600.34,584.50,25.35,0000 0000 0000 0000 000000
2015-08-20 09:53:19,-0.01,0.64,0.00,25.93,29.73,32.62,14.29,50.30,1006.36,2027.99,3199.00,2996.79,3275.82,600.05,584.31,25.40,0000 0000 0000 0000 000000
2015-08-20 09:58:21,0.00,0.64,0.00,25.90,29.71,32.58,14.19,50.31,1006.36,2027.99,3199.00,2996.72,3275.72,600.01,584.31,25.45,0000 0000 0000 0000 000000
2015-08-20 10:03:22,-0.01,0.64,0.00,25.88,29.70,32.56,14.22,50.13,1006.36,2027.99,3199.00,2996.87,3275.75,600.34,584.60,25.50,0000 0000 0000 0000 000000
2015-08-20 10:08:23,-0.00,0.64,0.00,25.86,29.67,32.53,14.32,50.55,1006.36,2027.99,3199.00,2996.94,3275.81,600.08,584.45,25.55,0000 0000 0000 0000 000000
2015-08-20 10:13:25,0.00,0.64,0.00,25.83,29.66,32.51,14.28,50.53,1006.36,2028.01,3199.00,2996.95,3275.92,599.99,584.41,25.60,0000 0000 0000 0000 000000
2015-08-20 10:18:26,0.00,0.64,0.00,25.82,29.64,32.48,14.21,50.40,1006.36,2028.04,3199.00,2996.97,3275.95,599.85,584.13,25.65,0000 0000 0000 0000 000000
2015-08-20 10:23:27,0.00,0.64,0.00,25.80,29.61,32.46,14.18,50.41,1006.36,2028.07,3198.99,2996.98,3275.93,599.69,584.20,25.70,0000 0000 0000 0000 000000
2015-08-20 10:28:29,0.01,0.64,0.00,25.80,29.60,32.43,14.28,50.35,1006.37,2028.13,3198.99,2996.99,3275.95,600.13,584.64,25.75,0000 0000 0000 0000 000000
2015-08-20 10:39:06,0.01,0.65,0.00,25.77,29.55,32.40,14.23,50.43,1006.38,2028.92,3198.99,2996.99,3275.99,599.96,584.55,25.86,0000 0000 0000 0000 000000
2015-08-20 10:44:07,-0.00,0.65,0.00,25.75,29.53,32.38,14.27,50.40,1006.37,2028.95,3198.99,2996.99,3275.99,600.01,584.53,25.91,0000 0000 0000 0000 000000
2015-08-20 10:49:09,0.00,0.65,0.00,25.74,29.51,32.35,14.33,50.44,1006.37,2028.97,3198.99,2997.02,3275.99,600.08,584.68,25.96,0000 0000 0000 0000 000000
2015-08-20 10:54:10,-0.00,0.65,0.00,25.71,29.49,32.34,14.35,50.38,1006.37,2028.99,3199.00,2997.13,3276.03,600.51,585.22,26.01,0000 0000 0000 0000 000000
2015-08-20 10:59:11,0.00,0.65,0.00,25.71,29.47,32.31,14.29,50.33,1006.38,2028.99,3199.00,2997.25,3276.02,599.87,584.60,26.06,0000 0000 0000 0000 000000
2015-08-20 11:04:12,-0.01,0.65,0.00,25.74,29.46,32.27,14.28,50.44,1006.37,2028.99,3199.02,2997.61,3276.12,599.54,584.08,26.11,0000 0000 0000 0000 000000
2015-08-20 11:09:14,-0.00,0.65,0.00,25.72,29.44,32.27,14.24,50.34,1006.37,2029.01,3199.00,2997.68,3276.08,600.01,584.68,26.16,0000 0000 0000 0000 000000
2015-08-20 11:14:15,0.00,0.65,0.00,25.72,29.42,32.29,14.26,50.40,1006.36,2029.03,3199.00,2997.82,3276.12,599.83,584.48,26.21,0000 0000 0000 0000 000000
2015-08-20 11:19:16,-0.00,0.65,0.00,25.71,29.40,32.28,14.29,50.36,1006.36,2029.06,3199.01,2997.92,3276.38,600.09,584.74,26.26,0000 0000 0000 0000 000000
2015-08-20 11:24:17,0.01,0.65,0.00,25.69,29.39,32.25,14.23,50.33,1006.36,2029.15,3199.03,2997.97,3276.74,600.11,584.80,26.31,0000 0000 0000 0000 000000
2015-08-20 11:29:18,0.00,0.65,0.00,25.67,29.37,32.25,14.24,50.30,1006.36,2029.19,3199.00,2997.98,3276.70,599.73,584.48,26.36,0000 0000 0000 0000 000000
2015-08-20 11:34:20,0.04,0.65,0.00,25.66,29.35,32.21,14.23,50.41,1006.36,2029.52,3199.02,2997.99,3276.85,599.79,584.64,26.41,0000 0000 0000 0000 000000
2015-08-20 11:39:21,0.01,0.65,0.00,25.65,29.34,32.19,14.24,50.42,1006.36,2029.77,3199.01,2997.99,3276.88,599.91,584.68,26.46,0000 0000 0000 0000 000000
2015-08-20 11:44:22,0.01,0.65,0.00,25.64,29.32,32.19,14.27,50.34,1006.36,2029.93,3199.02,2997.99,3276.95,599.70,584.62,26.51,0000 0000 0000 0000 000000
2015-08-20 11:49:23,0.00,0.65,0.00,25.62,29.31,32.18,14.26,50.39,1006.32,2029.98,3199.01,2997.99,3276.97,599.89,584.71,26.56,0000 0000 0000 0000 000000
2015-08-20 11:54:25,-0.00,0.65,0.00,25.60,29.30,32.16,14.30,50.44,1006.12,2029.97,3199.04,2997.99,3276.99,599.85,584.71,26.61,0000 0000 0000 0000 000000
2015-08-20 11:59:26,-0.00,0.65,0.00,25.59,29.28,32.15,14.26,50.49,1005.90,2029.99,3199.17,2998.02,3276.99,599.82,584.61,26.66,0000 0000 0000 0000 000000
2015-08-20 12:04:28,0.00,0.65,0.00,25.57,29.27,32.12,14.22,50.48,1005.88,2029.99,3199.21,2998.03,3276.99,599.78,584.45,26.71,0000 0000 0000 0000 000000
2015-08-20 12:09:30,0.00,0.65,0.00,25.55,29.25,32.13,14.18,50.45,1005.87,2029.99,3199.12,2998.03,3276.99,599.64,584.40,26.76,0000 0000 0000 0000 000000
2015-08-20 12:14:31,-0.01,0.65,0.00,25.55,29.24,32.11,14.20,50.68,1005.86,2029.99,3199.36,2998.24,3277.01,599.87,584.55,26.81,0000 0000 0000 0000 000000
2015-08-20 12:19:32,0.01,0.65,0.00,25.53,29.22,32.09,14.24,50.33,1005.87,2030.00,3199.26,2998.31,3277.01,600.01,584.75,26.86,0000 0000 0000 0000 000000
2015-08-20 12:24:33,0.01,0.65,0.00,25.51,29.21,32.08,14.29,50.58,1005.87,2030.00,3199.07,2998.22,3277.00,599.99,584.77,26.91,0000 0000 0000 0000 000000
2015-08-20 12:29:35,-0.01,0.65,0.00,25.50,29.20,32.05,14.19,50.23,1005.87,2030.02,3199.15,2998.50,3277.00,599.86,584.79,26.96,0000 0000 0000 0000 000000
2015-08-20 12:34:36,-0.00,0.65,0.00,25.48,29.18,32.07,14.18,50.58,1005.87,2030.03,3199.15,2998.72,3277.01,599.65,584.55,27.01,0000 0000 0000 0000 000000
2015-08-20 12:39:38,-0.00,0.65,0.00,25.47,29.17,32.04,14.22,50.61,1005.87,2030.06,3199.14,2998.88,3277.03,600.07,584.89,27.06,0000 0000 0000 0000 000000
2015-08-20 12:44:39,0.01,0.65,0.00,25.46,29.15,32.03,14.29,50.39,1005.87,2030.16,3199.21,2998.95,3277.05,599.95,584.84,27.11,0000 0000 0000 0000 000000
2015-08-20 12:49:40,0.01,0.65,0.00,25.44,29.15,32.01,14.29,50.54,1005.88,2030.29,3199.19,2998.95,3277.07,599.96,584.84,27.16,0000 0000 0000 0000 000000
2015-08-20 12:54:41,0.02,0.65,0.00,25.42,29.13,32.01,14.28,50.60,1005.88,2030.51,3199.19,2998.98,3277.13,599.68,584.73,27.21,0000 0000 0000 0000 000000
2015-08-20 12:59:43,0.02,0.65,0.00,25.40,29.12,32.01,14.26,50.42,1005.89,2030.84,3199.26,2998.99,3277.26,600.00,585.06,27.26,0000 0000 0000 0000 000000